• En España
  • Lista de países
  • Para 7 días
  • Temperatura del agua
  • Mapa Satelital
  • El tiempo en el mapa
  • Informadores
  • user-avatar
    Iniciar sesión

    Tiempo cada hora Kalgoorlie

    Hoy, 21 Octubre, Domingo

    Tiempo Temperatura Precipitaciones Viento Presión Humedad
    00:00 +20°C° 0 mm 4 mps 729 mmHg 34%
    01:00 +19°C° 0 mm 4 mps 729 mmHg 40%
    02:00 +18°C° 0 mm 4 mps 728 mmHg 47%
    03:00 +17°C° 0 mm 4 mps 728 mmHg 53%
    04:00 +17°C° 0 mm 4 mps 728 mmHg 59%
    05:00 +15°C° 0 mm 4 mps 728 mmHg 65%
    06:00 +16°C° 0 mm 5 mps 729 mmHg 61%
    07:00 +17°C° 0 mm 5 mps 729 mmHg 57%
    08:00 +19°C° 0 mm 6 mps 729 mmHg 54%
    09:00 +20°C° 0 mm 6 mps 729 mmHg 46%
    10:00 +22°C° 0 mm 7 mps 729 mmHg 39%
    11:00 +24°C° 0 mm 7 mps 729 mmHg 32%
    12:00 +26°C° 0 mm 8 mps 728 mmHg 28%
    13:00 +27°C° 0 mm 8 mps 728 mmHg 25%
    14:00 +28°C° 0 mm 8 mps 728 mmHg 22%
    15:00 +28°C° 0 mm 8 mps 727 mmHg 24%
    16:00 +27°C° 0 mm 8 mps 727 mmHg 26%
    17:00 +27°C° 0 mm 8 mps 727 mmHg 27%
    18:00 +24°C° 0 mm 7 mps 727 mmHg 33%
    19:00 +23°C° 0 mm 7 mps 728 mmHg 38%
    20:00 +22°C° 0 mm 6 mps 728 mmHg 44%
    21:00 +21°C° 0 mm 6 mps 728 mmHg 47%
    22:00 +20°C° 0 mm 6 mps 729 mmHg 50%
    23:00 +19°C° 0 mm 6 mps 729 mmHg 53%

    Mañana, 22 Octubre, Lunes

    Tiempo Temperatura Precipitaciones Viento Presión Humedad
    00:00 +19°C° 0 mm 6 mps 729 mmHg 57%
    01:00 +17°C° 0 mm 7 mps 729 mmHg 60%
    02:00 +16°C° 0 mm 7 mps 729 mmHg 64%
    03:00 +15°C° 0 mm 7 mps 729 mmHg 66%
    04:00 +14°C° 0 mm 7 mps 729 mmHg 67%
    05:00 +13°C° 0 mm 6 mps 730 mmHg 69%
    06:00 +13°C° 0 mm 6 mps 730 mmHg 61%
    07:00 +14°C° 0 mm 6 mps 731 mmHg 54%
    08:00 +15°C° 0 mm 6 mps 731 mmHg 47%
    09:00 +16°C° 0 mm 5 mps 731 mmHg 41%
    10:00 +19°C° 0 mm 5 mps 731 mmHg 36%
    11:00 +20°C° 0 mm 5 mps 731 mmHg 30%
    12:00 +21°C° 0 mm 4 mps 730 mmHg 27%
    13:00 +23°C° 0 mm 4 mps 730 mmHg 24%
    14:00 +25°C° 0 mm 4 mps 730 mmHg 22%
    15:00 +25°C° 0 mm 4 mps 730 mmHg 21%
    16:00 +25°C° 0 mm 4 mps 730 mmHg 21%
    17:00 +25°C° 0 mm 4 mps 730 mmHg 21%
    18:00 +23°C° 0 mm 4 mps 730 mmHg 24%
    19:00 +22°C° 0 mm 4 mps 731 mmHg 26%
    20:00 +21°C° 0 mm 4 mps 731 mmHg 29%
    21:00 +20°C° 0 mm 5 mps 731 mmHg 33%
    22:00 +17°C° 0 mm 6 mps 732 mmHg 36%
    23:00 +16°C° 0 mm 6 mps 732 mmHg 40%

    Pasado mañana, 23 Octubre, Martes

    Tiempo Temperatura Precipitaciones Viento Presión Humedad
    00:00 +15°C° 0 mm 6 mps 732 mmHg 46%
    01:00 +14°C° 0 mm 7 mps 731 mmHg 53%
    02:00 +12°C° 0 mm 7 mps 731 mmHg 59%
    03:00 +13°C° 0 mm 6 mps 731 mmHg 61%
    04:00 +11°C° 0 mm 6 mps 731 mmHg 64%
    05:00 +11°C° 0 mm 6 mps 731 mmHg 66%
    06:00 +13°C° 0 mm 6 mps 732 mmHg 62%
    07:00 +14°C° 0 mm 7 mps 732 mmHg 59%
    08:00 +15°C° 0 mm 7 mps 732 mmHg 55%
    09:00 +17°C° 0 mm 7 mps 732 mmHg 49%
    10:00 +20°C° 0 mm 7 mps 732 mmHg 43%
    11:00 +22°C° 0 mm 6 mps 732 mmHg 37%
    12:00 +23°C° 0 mm 6 mps 731 mmHg 33%
    13:00 +25°C° 0 mm 5 mps 730 mmHg 29%
    14:00 +26°C° 0 mm 4 mps 729 mmHg 26%
    15:00 +27°C° 0 mm 4 mps 729 mmHg 25%
    16:00 +27°C° 0 mm 3 mps 729 mmHg 24%
    17:00 +27°C° 0 mm 3 mps 729 mmHg 23%
    18:00 +26°C° 0 mm 3 mps 729 mmHg 25%
    19:00 +25°C° 0 mm 3 mps 729 mmHg 26%
    20:00 +24°C° 0 mm 3 mps 729 mmHg 28%
    21:00 +23°C° 0 mm 4 mps 729 mmHg 29%
    22:00 +22°C° 0 mm 5 mps 728 mmHg 31%
    23:00 +22°C° 0 mm 6 mps 728 mmHg 33%

    24 Octubre, Miércoles

    Tiempo Temperatura Precipitaciones Viento Presión Humedad
    00:00 +21°C° 0 mm 6 mps 728 mmHg 35%
    01:00 +20°C° 0 mm 7 mps 727 mmHg 37%
    02:00 +20°C° 0 mm 7 mps 727 mmHg 40%
    03:00 +18°C° 0 mm 7 mps 727 mmHg 42%
    04:00 +18°C° 0 mm 7 mps 727 mmHg 44%
    05:00 +17°C° 0 mm 7 mps 727 mmHg 46%
    06:00 +20°C° 0 mm 8 mps 727 mmHg 44%
    07:00 +21°C° 0 mm 8 mps 727 mmHg 42%
    08:00 +22°C° 0 mm 9 mps 727 mmHg 39%
    09:00 +24°C° 0 mm 8 mps 727 mmHg 35%
    10:00 +28°C° 0 mm 8 mps 727 mmHg 30%
    11:00 +30°C° 0 mm 7 mps 726 mmHg 25%
    12:00 +32°C° 0 mm 6 mps 725 mmHg 23%
    13:00 +34°C° 0 mm 6 mps 724 mmHg 20%
    14:00 +35°C° 0 mm 5 mps 723 mmHg 18%
    15:00 +33°C° 0.8 mm 6 mps 723 mmHg 24%
    16:00 +30°C° 0.8 mm 6 mps 722 mmHg 30%
    17:00 +29°C° 0.8 mm 7 mps 722 mmHg 36%
    18:00 +27°C° 0.4 mm 8 mps 722 mmHg 41%
    19:00 +26°C° 0.4 mm 8 mps 722 mmHg 46%
    20:00 +23°C° 0.4 mm 9 mps 723 mmHg 52%
    21:00 +22°C° 0.3 mm 9 mps 723 mmHg 53%
    22:00 +22°C° 0.3 mm 9 mps 723 mmHg 55%
    23:00 +21°C° 0.3 mm 10 mps 723 mmHg 56%

    25 Octubre, Jueves

    Tiempo Temperatura Precipitaciones Viento Presión Humedad
    00:00 +19°C° 0.1 mm 10 mps 723 mmHg 58%
    01:00 +18°C° 0.1 mm 11 mps 722 mmHg 60%
    02:00 +17°C° 0.1 mm 12 mps 722 mmHg 62%
    03:00 +17°C° 0 mm 12 mps 722 mmHg 64%
    04:00 +15°C° 0 mm 12 mps 722 mmHg 66%
    05:00 +15°C° 0 mm 12 mps 722 mmHg 68%
    06:00 +17°C° 0 mm 12 mps 723 mmHg 66%
    07:00 +17°C° 0 mm 12 mps 723 mmHg 63%
    08:00 +18°C° 0 mm 12 mps 724 mmHg 61%
    09:00 +21°C° 0 mm 12 mps 723 mmHg 55%
    10:00 +23°C° 0 mm 11 mps 723 mmHg 49%
    11:00 +26°C° 0 mm 10 mps 723 mmHg 44%
    12:00 +28°C° 0 mm 10 mps 722 mmHg 40%
    13:00 +29°C° 0 mm 9 mps 721 mmHg 37%
    14:00 +31°C° 0 mm 9 mps 721 mmHg 33%
    15:00 +31°C° 0 mm 9 mps 721 mmHg 35%
    16:00 +29°C° 0 mm 9 mps 721 mmHg 37%
    17:00 +29°C° 0 mm 10 mps 721 mmHg 39%
    18:00 +27°C° 0.5 mm 10 mps 722 mmHg 45%
    19:00 +24°C° 0.5 mm 9 mps 723 mmHg 50%
    20:00 +23°C° 0.5 mm 9 mps 723 mmHg 56%
    21:00 +21°C° 0 mm 10 mps 723 mmHg 61%
    22:00 +19°C° 0 mm 10 mps 723 mmHg 66%
    23:00 +18°C° 0 mm 11 mps 723 mmHg 72%

    26 Octubre, Viernes

    Tiempo Temperatura Precipitaciones Viento Presión Humedad
    00:00 +17°C° 0.1 mm 10 mps 722 mmHg 73%
    01:00 +17°C° 0.1 mm 10 mps 722 mmHg 75%
    02:00 +16°C° 0.1 mm 10 mps 722 mmHg 77%
    03:00 +16°C° 0 mm 9 mps 722 mmHg 77%
    04:00 +16°C° 0 mm 8 mps 722 mmHg 78%
    05:00 +16°C° 0 mm 8 mps 723 mmHg 78%
    06:00 +17°C° 0 mm 8 mps 723 mmHg 76%
    07:00 +18°C° 0 mm 8 mps 724 mmHg 74%
    08:00 +18°C° 0 mm 8 mps 724 mmHg 72%
    09:00 +21°C° 0 mm 9 mps 724 mmHg 66%
    10:00 +22°C° 0 mm 9 mps 724 mmHg 61%
    11:00 +23°C° 0 mm 9 mps 724 mmHg 56%
    12:00 +24°C° 0 mm 9 mps 724 mmHg 52%
    13:00 +26°C° 0 mm 9 mps 723 mmHg 49%
    14:00 +27°C° 0 mm 10 mps 723 mmHg 46%
    15:00 +27°C° 0 mm 9 mps 724 mmHg 48%
    16:00 +26°C° 0 mm 9 mps 724 mmHg 49%
    17:00 +24°C° 0 mm 9 mps 724 mmHg 51%
    18:00 +23°C° 0 mm 8 mps 725 mmHg 55%
    19:00 +22°C° 0 mm 7 mps 725 mmHg 59%
    20:00 +21°C° 0 mm 7 mps 726 mmHg 63%
    21:00 +20°C° 0 mm 7 mps 726 mmHg 63%
    22:00 +18°C° 0 mm 7 mps 726 mmHg 64%
    23:00 +17°C° 0 mm 8 mps 726 mmHg 64%
    Mostrar más